Location: Frydek-Mistek
(49.6830°N, 18.3330°E)
Time: 17:25:05
(UTC+02:00)

Courier 1B Rocket - All Passes

Search period start: 20 August 2017 00:00
Search period end: 30 August 2017 00:00
Orbit: 920 x 1202 km, 28.2° (Epoch: 20 August)

Date Brightness Start Highest point End Pass type
(mag) Time Alt. Az. Time Alt. Az. Time Alt. Az.
20 Aug - 14:46:32 10° S 14:47:34 10° SSE 14:48:36 10° SSE daylight
20 Aug - 16:35:59 10° SSW 16:39:40 14° S 16:43:20 10° SSE daylight
20 Aug - 18:30:12 10° SSW 18:31:46 11° SSW 18:33:21 10° S daylight
21 Aug - 15:35:29 10° SSW 15:38:56 13° S 15:42:24 10° SSE daylight
21 Aug - 17:28:04 10° SSW 17:31:05 13° S 17:34:05 10° SSE daylight
22 Aug - 14:35:30 10° S 14:38:13 12° SSE 14:40:57 10° SSE daylight
22 Aug - 16:26:50 10° SSW 16:30:21 14° S 16:33:54 10° SSE daylight
23 Aug - 15:26:03 10° SSW 15:29:37 14° S 15:33:14 10° SSE daylight
23 Aug - 17:20:06 10° SSW 17:21:44 11° SSW 17:23:23 10° S daylight
24 Aug - 14:25:41 10° SSW 14:28:54 13° S 14:32:11 10° SSE daylight
24 Aug - 16:18:08 10° SSW 16:21:02 12° S 16:23:58 10° SSE daylight
25 Aug - 13:25:54 10° S 13:28:13 12° SSE 13:30:34 10° SSE daylight
25 Aug - 15:17:01 10° SSW 15:20:19 13° S 15:23:40 10° SSE daylight
26 Aug - 14:16:21 10° SSW 14:19:37 13° S 14:22:56 10° SSE daylight
26 Aug - 16:10:32 10° SSW 16:11:43 10° SSW 16:12:53 10° S daylight
27 Aug - 13:16:08 10° SSW 13:18:56 12° S 13:21:47 10° SSE daylight
27 Aug - 15:08:31 10° SSW 15:11:01 12° S 15:13:34 10° S daylight
28 Aug - 12:16:41 10° S 12:18:17 11° SSE 12:19:55 10° SSE daylight
28 Aug - 14:07:28 10° SSW 14:10:20 13° S 14:13:15 10° SSE daylight
29 Aug - 13:06:55 10° SSW 13:09:40 12° S 13:12:28 10° SSE daylight
